OK1FCB-1 Weather Reports


time (UTC)temp
F
wind
direction
speed
knots
gust
knots
rain 1hr
in
rain 24hr
in
rain mn
in
humidity
%
barometer
mb
20260507014555 52 0.0 0.0 0.00 0.00 0.00 82 1011.6
20260507014550 52 0.0 0.0 0.00 0.00 0.00 82 1011.6
20260507013058 53 0.0 0.0 0.00 0.00 0.00 82 1011.6
20260507013052 53 0.0 0.0 0.00 0.00 0.00 82 1011.6
20260507011600 53 0.0 0.0 0.00 0.00 0.00 82 1011.3
20260507011555 53 0.0 0.0 0.00 0.00 0.00 82 1011.3
20260507004605 53 0.0 0.0 0.00 0.00 0.00 81 1010.8
20260507004600 53 0.0 0.0 0.00 0.00 0.00 81 1010.8
20260507001610 53 0.0 0.0 0.00 0.00 0.00 81 1010.4
20260507001604 53 0.0 0.0 0.00 0.00 0.00 81 1010.4
20260507000106 54 0.0 0.0 0.00 0.00 0.00 81 1010.5
20260506234614 54 0.0 0.0 0.00 0.00 0.00 81 1010.6
20260506234608 54 0.0 0.0 0.00 0.00 0.00 81 1010.6
20260506221622 55 0.0 0.0 0.00 0.00 0.00 81 1011.3
20260506211631 54 0.0 0.0 0.00 0.00 0.00 80 1009.8
20260506200148 53 0.0 0.0 0.00 0.00 0.00 79 1008.8
20260506200142 53 0.0 0.0 0.00 0.00 0.00 79 1008.8
20260506191654 54 0.0 0.0 0.00 0.00 0.00 78 1008.7
20260506191648 54 0.0 0.0 0.00 0.00 0.00 78 1008.7
20260506190151 54 0.0 0.0 0.00 0.00 0.00 78 1008.6
20260506184658 54 0.0 0.0 0.00 0.00 0.00 77 1008.4
20260506184652 54 0.0 0.0 0.00 0.00 0.00 77 1008.4
20260506181703 55 0.0 0.0 0.00 0.00 0.00 76 1009.5
20260506181658 55 0.0 0.0 0.00 0.00 0.00 76 1009.5
20260506180200 55 0.0 0.0 0.00 0.00 0.00 76 1009.3
20260506170217 59 0.0 0.0 0.00 0.00 0.00 68 1008.2
20260506170212 59 0.0 0.0 0.00 0.00 0.00 68 1008.2
20260506153222 61 0.0 0.0 0.00 0.00 0.00 63 1008.7
20260506151731 62 0.0 0.0 0.00 0.00 0.00 62 1008.8
20260506151725 62 0.0 0.0 0.00 0.00 0.00 62 1008.8
20260506150235 65 0.0 0.0 0.00 0.00 0.00 58 1009.6
20260506150230 65 0.0 0.0 0.00 0.00 0.00 58 1009.6
20260506130311 86 0.0 0.0 0.00 0.00 0.00 31 1009.6
20260506124812 89 0.0 0.0 0.00 0.00 0.00 29 1009.9
20260506123312 87 0.0 0.0 0.00 0.00 0.00 32 1010.1
20260506114821 83 0.0 0.0 0.00 0.00 0.00 35 1010.4
20260506114815 83 0.0 0.0 0.00 0.00 0.00 35 1010.4
20260506113315 80 0.0 0.0 0.00 0.00 0.00 35 1010.7
20260506104826 78 0.0 0.0 0.00 0.00 0.00 37 1010.8
20260506104820 78 0.0 0.0 0.00 0.00 0.00 37 1010.8
20260506103326 77 0.0 0.0 0.00 0.00 0.00 39 1010.9
20260506100321 75 0.0 0.0 0.00 0.00 0.00 40 1011.1
20260506093322 73 0.0 0.0 0.00 0.00 0.00 44 1011.0
20260506084830 69 0.0 0.0 0.00 0.00 0.00 46 1010.9
20260506081831 72 0.0 0.0 0.00 0.00 0.00 45 1010.8
20260506024916 56 0.0 0.0 0.00 0.00 0.00 72 1009.8
20260506024910 56 0.0 0.0 0.00 0.00 0.00 72 1009.8